Total_Precipitation_Accumulation
0.04 0.04 0.05 0.05 0.05 0.07 0.08 0.11 0.15 0.10 0.22 0.19 0.12 0.10 0.10 0.10 0.13 0.17 0.07 0.03 0.06 0.20 0.39 0.13 0.05 0.05 0.13 0.27 0.46 0.39 0.44 0.09 0.03 0.03 0.04 0.00 0.00 0.00 0.00 0.00 0.00 0.00 0.05 0.03 0.06
0.04 0.04 0.04 0.04 0.05 0.05 0.11 0.16 0.13 0.15 0.14 0.09 0.07 0.04 0.09 0.15 0.06 0.01 0.00 0.02 0.16 0.37 0.31 0.19 0.07 0.08 0.15 0.25 0.63 0.82 0.61 0.15 0.00 0.05 0.06 0.01 0.00 0.00 0.00 0.00 0.01 0.04 0.05 0.04 0.10
0.04 0.05 0.05 0.05 0.04 0.04 0.14 0.13 0.10 0.07 0.01 0.00 0.00 0.00 0.07 0.10 0.10 0.02 0.11 0.15 0.37 0.58 0.42 0.20 0.22 0.22 0.13 0.25 0.52 0.58 0.36 0.04 0.02 0.10 0.17 0.10 0.00 0.00 0.00 0.00 0.00 0.03 0.08 0.09 0.18
0.05 0.05 0.05 0.05 0.04 0.04 0.08 0.07 0.05 0.02 0.01 0.00 0.00 0.00 0.03 0.03 0.08 0.04 0.04 0.12 0.28 0.63 0.69 0.29 0.24 0.24 0.12 0.13 0.27 0.35 0.08 0.05 0.09 0.11 0.20 0.09 0.02 0.01 0.02 0.01 0.00 0.01 0.07 0.14 0.16
0.06 0.06 0.04 0.04 0.03 0.03 0.03 0.02 0.03 0.03 0.02 0.07 0.00 0.00 0.01 0.02 0.01 0.02 0.01 0.02 0.13 0.67 0.73 0.42 0.26 0.25 0.08 0.02 0.18 0.28 0.15 0.11 0.18 0.18 0.10 0.10 0.20 0.04 0.00 0.00 0.00 0.00 0.03 0.05 0.09
0.07 0.05 0.04 0.03 0.03 0.02 0.01 0.03 0.03 0.04 0.03 0.02 0.02 0.02 0.03 0.05 0.01 0.04 0.02 0.00 0.05 0.48 0.69 0.69 0.25 0.26 0.06 0.04 0.12 0.09 0.34 0.32 0.33 0.24 0.30 0.18 0.16 0.16 0.02 0.00 0.00 0.01 0.04 0.02 0.05
0.05 0.06 0.04 0.04 0.03 0.02 0.02 0.02 0.03 0.02 0.03 0.02 0.01 0.03 0.03 0.07 0.04 0.02 0.07 0.05 0.09 0.33 0.43 0.64 0.31 0.48 0.22 0.04 0.03 0.12 0.45 0.62 0.50 0.41 0.26 0.33 0.25 0.21 0.02 0.00 0.00 0.01 0.03 0.03 0.00
0.06 0.05 0.03 0.03 0.03 0.02 0.01 0.02 0.02 0.03 0.03 0.02 0.00 0.00 0.01 0.01 0.04 0.03 0.03 0.16 0.13 0.22 0.44 0.79 0.71 0.59 0.32 0.04 0.06 0.19 0.39 0.73 0.45 0.51 0.46 0.35 0.22 0.02 0.07 0.09 0.00 0.00 0.00 0.00 0.00
0.07 0.05 0.03 0.03 0.03 0.02 0.01 0.01 0.01 0.01 0.01 0.01 0.01 0.01 0.00 0.01 0.06 0.02 0.01 0.08 0.27 0.27 0.48 1.30 1.33 0.62 0.35 0.10 0.11 0.16 0.19 0.31 0.43 0.40 0.47 0.31 0.11 0.02 0.05 0.09 0.00 0.00 0.00 0.00 0.00
0.05 0.04 0.04 0.04 0.03 0.02 0.01 0.00 0.00 0.00 0.00 0.00 0.00 0.01 0.00 0.00 0.01 0.01 0.01 0.16 0.58 0.67 1.06 1.71 1.91 0.62 0.44 0.14 0.11 0.02 0.04 0.12 0.22 0.25 0.34 0.36 0.15 0.01 0.00 0.00 0.00 0.00 0.00 0.00 0.00
0.04 0.05 0.04 0.03 0.03 0.02 0.01 0.00 0.00 0.00 0.00 0.00 0.00 0.00 0.00 0.01 0.05 0.08 0.07 0.38 1.00 1.01 1.51 1.62 1.61 0.62 0.23 0.03 0.00 0.00 0.00 0.05 0.05 0.07 0.26 0.28 0.13 0.02 0.00 0.00 0.00 0.00 0.00 0.00 0.00
0.05 0.06 0.05 0.02 0.02 0.03 0.01 0.00 0.00 0.00 0.00 0.00 0.00 0.00 0.00 0.07 0.09 0.06 0.17 0.55 1.03 1.02 1.28 1.20 0.74 0.33 0.13 0.02 0.00 0.01 0.00 0.01 0.07 0.08 0.14 0.23 0.18 0.02 0.00 0.00 0.00 0.00 0.00 0.00 0.00
0.05 0.04 0.02 0.02 0.02 0.00 0.00 0.00 0.00 0.00 0.00 0.01 0.01 0.00 0.03 0.15 0.22 0.12 0.24 0.47 0.87 0.83 1.09 0.64 0.41 0.29 0.20 0.07 0.01 0.01 0.00 0.00 0.06 0.10 0.16 0.11 0.14 0.04 0.00 0.00 0.00 0.00 0.00 0.00 0.00
0.05 0.03 0.03 0.03 0.00 0.00 0.00 0.00 0.00 0.00 0.01 0.07 0.09 0.09 0.20 0.29 0.22 0.22 0.38 0.47 0.88 0.80 1.04 0.51 0.33 0.28 0.14 0.06 0.00 0.00 0.00 0.00 0.02 0.11 0.08 0.09 0.06 0.00 0.00 0.00 0.00 0.00 0.00 0.00 0.00
0.02 0.03 0.04 0.03 0.00 0.00 0.00 0.00 0.00 0.00 0.08 0.04 0.09 0.06 0.11 0.13 0.23 0.36 0.41 0.67 0.71 0.68 0.74 0.47 0.34 0.32 0.10 0.04 0.01 0.01 0.01 0.01 0.01 0.06 0.01 0.00 0.00 0.00 0.00 0.00 0.00 0.00 0.00 0.00 0.00
0.01 0.02 0.02 0.01 0.00 0.00 0.00 0.00 0.00 0.01 0.07 0.22 0.20 0.24 0.38 0.27 0.22 0.15 0.45 0.50 0.47 0.42 0.48 0.30 0.33 0.30 0.12 0.06 0.01 0.00 0.01 0.02 0.02 0.01 0.00 0.00 0.00 0.00 0.00 0.00 0.00 0.00 0.00 0.00 0.00
0.01 0.01 0.00 0.00 0.00 0.00 0.00 0.00 0.01 0.01 0.01 0.05 0.13 0.18 0.20 0.12 0.12 0.20 0.31 0.24 0.45 0.49 0.67 0.53 0.34 0.17 0.04 0.05 0.01 0.01 0.01 0.03 0.02 0.01 0.00 0.00 0.00 0.00 0.00 0.00 0.00 0.00 0.00 0.00 0.00
0.00 0.00 0.00 0.00 0.00 0.00 0.00 0.01 0.01 0.01 0.02 0.04 0.05 0.18 0.14 0.14 0.14 0.12 0.22 0.14 0.10 0.16 0.40 0.55 0.58 0.18 0.02 0.02 0.01 0.02 0.00 0.00 0.00 0.00 0.00 0.00 0.00 0.00 0.00 0.00 0.00 0.00 0.00 0.00 0.00
0.00 0.00 0.00 0.00 0.00 0.00 0.01 0.01 0.01 0.01 0.02 0.03 0.12 0.27 0.36 0.16 0.08 0.13 0.14 0.07 0.03 0.11 0.22 0.20 0.28 0.15 0.01 0.00 0.01 0.05 0.01 0.00 0.00 0.00 0.00 0.00 0.00 0.00 0.00 0.00 0.00 0.00 0.00 0.00 0.00
0.00 0.00 0.00 0.00 0.00 0.01 0.03 0.01 0.00 0.00 0.00 0.01 0.03 0.06 0.16 0.15 0.16 0.11 0.13 0.03 0.02 0.07 0.03 0.02 0.21 0.10 0.01 0.02 0.02 0.02 0.02 0.02 0.00 0.00 0.00 0.00 0.00 0.00 0.00 0.00 0.00 0.00 0.00 0.00 0.00
0.00 0.01 0.00 0.00 0.00 0.03 0.02 0.01 0.00 0.00 0.00 0.00 0.01 0.02 0.11 0.20 0.05 0.02 0.03 0.02 0.03 0.06 0.01 0.00 0.04 0.10 0.08 0.10 0.06 0.01 0.02 0.02 0.01 0.00 0.00 0.00 0.00 0.00 0.00 0.00 0.00 0.00 0.00 0.00 0.00
0.00 0.00 0.00 0.00 0.02 0.01 0.01 0.00 0.00 0.00 0.00 0.00 0.00 0.01 0.01 0.02 0.01 0.01 0.01 0.01 0.02 0.01 0.01 0.00 0.00 0.06 0.06 0.01 0.02 0.05 0.01 0.01 0.02 0.02 0.00 0.00 0.00 0.00 0.00 0.00 0.00 0.00 0.00 0.00 0.00
0.00 0.00 0.00 0.00 0.01 0.01 0.00 0.00 0.00 0.00 0.00 0.00 0.00 0.00 0.00 0.01 0.01 0.01 0.00 0.00 0.00 0.00 0.01 0.00 0.01 0.05 0.11 0.06 0.01 0.04 0.03 0.00 0.01 0.02 0.01 0.00 0.00 0.00 0.00 0.00 0.00 0.00 0.00 0.00 0.00
0.00 0.00 0.01 0.01 0.00 0.00 0.00 0.00 0.00 0.00 0.00 0.00 0.00 0.00 0.00 0.00 0.00 0.00 0.00 0.00 0.00 0.00 0.00 0.00 0.00 0.01 0.03 0.02 0.00 0.00 0.00 0.00 0.03 0.08 0.02 0.00 0.00 0.00 0.00 0.00 0.00 0.00 0.00 0.00 0.00
0.00 0.00 0.00 0.00 0.00 0.00 0.00 0.01 0.00 0.00 0.00 0.00 0.00 0.00 0.00 0.00 0.00 0.00 0.00 0.00 0.00 0.00 0.00 0.00 0.00 0.00 0.00 0.00 0.00 0.00 0.00 0.00 0.01 0.01 0.02 0.00 0.00 0.00 0.00 0.00 0.00 0.00 0.00 0.00 0.00
0.00 0.00 0.00 0.00 0.00 0.00 0.00 0.01 0.01 0.00 0.00 0.00 0.00 0.00 0.00 0.00 0.00 0.00 0.00 0.00 0.01 0.00 0.00 0.00 0.00 0.00 0.00 0.00 0.00 0.00 0.00 0.00 0.00 0.00 0.00 0.00 0.00 0.00 0.00 0.00 0.00 0.00 0.00 0.00 0.00
0.00 0.00 0.00 0.00 0.00 0.00 0.00 0.00 0.01 0.00 0.01 0.00 0.00 0.00 0.00 0.00 0.00 0.00 0.00 0.00 0.00 0.00 0.00 0.00 0.00 0.00 0.00 0.00 0.00 0.00 0.00 0.00 0.00 0.00 0.00 0.00 0.00 0.00 0.00 0.00 0.00 0.00 0.00 0.00 0.00